EW6902 Weather Reports


Display with metric or nautical units.
time (UTC)temp
F
wind
direction
speed
MPH
gust
MPH
rain 1hr
in
rain 24hr
in
rain mn
in
humidity
%
barometer
mb
20260510201503 83 0 0.0 1.0 0.00 0.00 0.00 30 1013.6
20260510201213 83 0 0.0 1.0 0.00 0.00 0.00 29 1013.6
20260510200503 83 0 0.0 3.0 0.00 0.00 0.00 31 1013.7
20260510200004 84 0 0.0 3.0 0.00 0.00 0.00 28 1013.7
20260510195503 84 0 0.0 1.0 0.00 0.00 0.00 32 1013.8
20260510195003 84 0 0.0 0.0 0.00 0.00 0.00 30 1013.8
20260510194713 84 0 0.0 2.0 0.00 0.00 0.00 27 1013.8
20260510194004 84 0 0.0 2.0 0.00 0.00 0.00 33 1013.9
20260510193503 84 0 0.0 2.0 0.00 0.00 0.00 30 1013.9
20260510193217 84 0 0.0 2.0 0.00 0.00 0.00 30 1013.9
20260510192503 84 0 0.0 1.0 0.00 0.00 0.00 32 1013.9
20260510192003 84 0 0.0 0.0 0.00 0.00 0.00 29 1013.8
20260510191504 84 0 0.0 0.0 0.00 0.00 0.00 29 1013.9
20260510191003 84 0 0.0 0.0 0.00 0.00 0.00 34 1013.9
20260510190503 84 0 0.0 1.0 0.00 0.00 0.00 32 1013.9
20260510190004 84 0 0.0 2.0 0.00 0.00 0.00 31 1013.9
20260510185712 83 0 0.0 2.0 0.00 0.00 0.00 36 1013.9
20260510185004 84 0 0.0 0.0 0.00 0.00 0.00 33 1014.0
20260510184503 83 0 0.0 0.0 0.00 0.00 0.00 32 1014.1
20260510184217 83 0 0.0 2.0 0.00 0.00 0.00 34 1014.1
20260510183503 83 0 0.0 2.0 0.00 0.00 0.00 31 1014.1
20260510183003 83 0 0.0 2.0 0.00 0.00 0.00 32 1014.2
20260510182715 83 0 0.0 2.0 0.00 0.00 0.00 31 1014.2
20260510182003 83 0 0.0 2.0 0.00 0.00 0.00 40 1014.1
20260510181503 82 0 0.0 2.0 0.00 0.00 0.00 34 1014.1
20260510181003 82 0 0.0 1.0 0.00 0.00 0.00 32 1014.3
20260510180503 82 0 0.0 1.0 0.00 0.00 0.00 31 1014.3
20260510180003 82 0 0.0 1.0 0.00 0.00 0.00 31 1014.3
20260510175713 81 0 0.0 0.0 0.00 0.00 0.00 35 1014.3
20260510175003 81 0 0.0 0.0 0.00 0.00 0.00 28 1014.3
20260510174503 81 0 0.0 0.0 0.00 0.00 0.00 30 1014.4
20260510174003 82 0 0.0 0.0 0.00 0.00 0.00 29 1014.5
20260510173715 82 0 0.0 1.0 0.00 0.00 0.00 27 1014.5
20260510173003 83 0 0.0 1.0 0.00 0.00 0.00 28 1014.6
20260510172503 83 0 0.0 1.0 0.00 0.00 0.00 33 1014.8
20260510172004 82 0 0.0 0.0 0.00 0.00 0.00 31 1014.8
20260510171503 82 0 0.0 0.0 0.00 0.00 0.00 35 1014.8
20260510171215 81 0 0.0 0.0 0.00 0.00 0.00 37 1014.9
20260510170503 81 0 0.0 0.0 0.00 0.00 0.00 35 1015.0
20260510170216 81 0 0.0 0.0 0.00 0.00 0.00 32 1014.9
20260510165503 81 0 0.0 0.0 0.00 0.00 0.00 34 1014.9
20260510165003 81 0 0.0 0.0 0.00 0.00 0.00 35 1014.9
20260510164503 80 0 0.0 0.0 0.00 0.00 0.00 36 1014.9
20260510164003 80 0 0.0 0.0 0.00 0.00 0.00 33 1015.0
20260510163716 80 0 0.0 0.0 0.00 0.00 0.00 35 1014.9
20260510163003 80 0 0.0 5.0 0.00 0.00 0.00 30 1015.0
20260510162503 80 0 0.0 3.0 0.00 0.00 0.00 33 1015.0
20260510162003 80 0 0.0 0.0 0.00 0.00 0.00 43 1014.9
20260510161504 80 0 0.0 0.0 0.00 0.00 0.00 37 1015.0
20260510161003 79 0 0.0 0.0 0.00 0.00 0.00 38 1015.1
20260510160503 79 0 0.0 0.0 0.00 0.00 0.00 40 1015.1
20260510160003 79 0 0.0 0.0 0.00 0.00 0.00 42 1015.1
20260510155714 79 0 0.0 1.0 0.00 0.00 0.00 45 1015.1
20260510155003 79 0 0.0 1.0 0.00 0.00 0.00 44 1015.1
20260510154503 79 0 0.0 0.0 0.00 0.00 0.00 41 1015.1
20260510154003 78 0 0.0 0.0 0.00 0.00 0.00 46 1015.1
20260510153504 78 0 0.0 0.0 0.00 0.00 0.00 45 1015.1
20260510153004 78 0 0.0 0.0 0.00 0.00 0.00 46 1015.1
20260510152504 77 0 0.0 1.0 0.00 0.00 0.00 44 1015.1
20260510152215 77 0 0.0 1.0 0.00 0.00 0.00 45 1015.1
20260510151503 77 0 0.0 0.0 0.00 0.00 0.00 46 1015.1
20260510151216 77 0 0.0 0.0 0.00 0.00 0.00 45 1015.0
20260510150503 76 0 0.0 0.0 0.00 0.00 0.00 52 1015.1
20260510150004 76 0 0.0 0.0 0.00 0.00 0.00 48 1015.1
20260510145503 76 0 0.0 0.0 0.00 0.00 0.00 50 1015.2
20260510145003 75 0 0.0 0.0 0.00 0.00 0.00 52 1015.3
20260510144503 74 0 0.0 0.0 0.00 0.00 0.00 58 1015.3
20260510144003 74 0 0.0 1.0 0.00 0.00 0.00 55 1015.2
20260510143503 73 0 0.0 1.0 0.00 0.00 0.00 54 1015.2
20260510143003 73 0 0.0 2.0 0.00 0.00 0.00 56 1015.2
20260510142713 73 0 0.0 2.0 0.00 0.00 0.00 58 1015.2
20260510142003 72 0 0.0 0.0 0.00 0.00 0.00 60 1015.2
20260510141503 72 0 0.0 1.0 0.00 0.00 0.00 60 1015.2
20260510141217 72 0 0.0 1.0 0.00 0.00 0.00 60 1015.1
20260510140503 71 0 0.0 0.0 0.00 0.00 0.00 68 1015.0
20260510140213 71 0 0.0 0.0 0.00 0.00 0.00 67 1015.0
20260510135503 70 0 0.0 0.0 0.00 0.00 0.00 68 1015.1
20260510135214 70 0 0.0 0.0 0.00 0.00 0.00 68 1015.1
20260510134503 69 0 0.0 0.0 0.00 0.00 0.00 72 1015.1
20260510134215 69 0 0.0 0.0 0.00 0.00 0.00 72 1015.0
20260510133503 68 0 0.0 0.0 0.00 0.00 0.00 75 1015.1
20260510133003 67 0 0.0 0.0 0.00 0.00 0.00 76 1015.0
20260510132503 66 0 0.0 0.0 0.00 0.00 0.00 83 1015.0
20260510132217 66 0 0.0 0.0 0.00 0.00 0.00 83 1015.0
20260510131503 65 0 0.0 0.0 0.00 0.00 0.00 86 1015.1
20260510131003 65 0 0.0 0.0 0.00 0.00 0.00 88 1015.0
20260510130715 64 0 0.0 0.0 0.00 0.00 0.00 89 1015.1
20260510130004 64 0 0.0 0.0 0.00 0.00 0.00 91 1015.0
20260510125503 63 0 0.0 0.0 0.00 0.00 0.00 94 1015.0
20260510125003 63 0 0.0 0.0 0.00 0.00 0.00 94 1015.0
20260510124503 62 0 0.0 0.0 0.00 0.00 0.00 94 1015.0
20260510124004 62 0 0.0 0.0 0.00 0.00 0.00 94 1015.0
20260510123503 61 0 0.0 0.0 0.00 0.00 0.00 94 1014.9
20260510123003 59 0 0.0 0.0 0.00 0.00 0.00 94 1014.8
20260510122714 59 0 0.0 0.0 0.00 0.00 0.00 94 1014.8
20260510122004 58 0 0.0 0.0 0.00 0.00 0.00 93 1014.6
20260510121503 58 0 0.0 0.0 0.00 0.00 0.00 93 1014.5
20260510121003 58 0 0.0 0.0 0.00 0.00 0.00 93 1014.4
20260510120503 58 0 0.0 0.0 0.00 0.00 0.00 93 1014.2
20260510120003 57 0 0.0 0.0 0.00 0.00 0.00 93 1014.1
20260510115504 57 0 0.0 0.0 0.00 0.00 0.00 92 1014.0
20260510115215 56 0 0.0 0.0 0.00 0.00 0.00 92 1014.0
20260510114503 56 0 0.0 0.0 0.00 0.00 0.00 92 1014.0
20260510114003 56 0 0.0 0.0 0.00 0.00 0.00 92 1013.9
20260510113503 56 0 0.0 0.0 0.00 0.00 0.00 92 1013.8
20260510113003 56 0 0.0 0.0 0.00 0.00 0.00 92 1013.7
20260510112715 56 0 0.0 0.0 0.00 0.00 0.00 92 1013.7
20260510112003 56 0 0.0 0.0 0.00 0.00 0.00 92 1013.6
20260510111503 56 0 0.0 0.0 0.00 0.00 0.00 92 1013.6
20260510111003 56 0 0.0 0.0 0.00 0.00 0.00 92 1013.6
20260510110503 56 0 0.0 0.0 0.00 0.00 0.00 92 1013.4
20260510110003 56 0 0.0 0.0 0.00 0.00 0.00 91 1013.3
20260510105503 56 0 0.0 0.0 0.00 0.00 0.00 91 1013.3
20260510105003 56 0 0.0 0.0 0.00 0.00 0.00 91 1013.2
20260510104503 56 0 0.0 0.0 0.00 0.00 0.00 92 1013.1
20260510104004 56 0 0.0 0.0 0.00 0.00 0.00 91 1012.9
20260510103503 56 0 0.0 0.0 0.00 0.00 0.00 91 1012.9
20260510103004 56 0 0.0 0.0 0.00 0.00 0.00 91 1012.8
20260510102503 56 0 0.0 0.0 0.00 0.00 0.00 91 1012.7
20260510102213 56 0 0.0 0.0 0.00 0.00 0.00 91 1012.7
20260510101503 56 0 0.0 0.0 0.00 0.00 0.00 91 1012.7
20260510101003 57 0 0.0 0.0 0.00 0.00 0.00 91 1012.6
20260510100503 57 0 0.0 0.0 0.00 0.00 0.00 91 1012.5
20260510100215 57 0 0.0 0.0 0.00 0.00 0.00 91 1012.5
20260510095503 57 0 0.0 0.0 0.00 0.00 0.00 91 1012.4
20260510095216 57 0 0.0 0.0 0.00 0.00 0.00 91 1012.3
20260510094714 58 0 0.0 0.0 0.00 0.00 0.00 91 1012.3
20260510094004 58 0 0.0 0.0 0.00 0.00 0.00 91 1012.2
20260510093715 58 0 0.0 0.0 0.00 0.00 0.00 91 1012.2
20260510093003 58 0 0.0 0.0 0.00 0.00 0.00 91 1012.0
20260510092503 58 0 0.0 0.0 0.00 0.00 0.00 91 1012.0
20260510092003 58 0 0.0 0.0 0.00 0.00 0.00 91 1011.9
20260510091717 58 0 0.0 0.0 0.00 0.00 0.00 91 1011.9
20260510091003 58 0 0.0 0.0 0.00 0.00 0.00 91 1012.0
20260510090713 58 0 0.0 0.0 0.00 0.00 0.00 91 1011.9
20260510090004 58 0 0.0 0.0 0.00 0.00 0.00 91 1011.8
20260510085714 58 0 0.0 0.0 0.00 0.00 0.00 91 1011.8
20260510085217 58 0 0.0 0.0 0.00 0.00 0.00 91 1011.8
20260510084503 58 0 0.0 0.0 0.00 0.00 0.00 91 1011.7
20260510084003 58 0 0.0 0.0 0.00 0.00 0.00 91 1011.7
20260510083503 58 0 0.0 0.0 0.00 0.00 0.00 90 1011.6
20260510083003 58 0 0.0 0.0 0.00 0.00 0.00 91 1011.5
20260510082503 58 0 0.0 0.0 0.00 0.00 0.00 91 1011.4
20260510082003 58 0 0.0 0.0 0.00 0.00 0.00 91 1011.4
20260510081503 59 0 0.0 0.0 0.00 0.00 0.00 90 1011.4
20260510081004 59 0 0.0 0.0 0.00 0.00 0.00 90 1011.4
20260510080714 59 0 0.0 0.0 0.00 0.00 0.00 90 1011.4
20260510080004 59 0 0.0 0.0 0.00 0.00 0.00 91 1011.3
20260510075503 59 0 0.0 0.0 0.00 0.00 0.00 91 1011.3
20260510075003 59 0 0.0 0.0 0.00 0.00 0.00 91 1011.4
20260510074503 59 0 0.0 0.0 0.00 0.00 0.00 91 1011.3
20260510074213 59 0 0.0 0.0 0.00 0.00 0.00 90 1011.2
20260510073503 59 0 0.0 0.0 0.00 0.00 0.00 90 1011.1
20260510073003 59 0 0.0 0.0 0.00 0.00 0.00 90 1011.0
20260510072503 60 0 0.0 0.0 0.00 0.00 0.00 90 1011.0
20260510072003 60 0 0.0 0.0 0.00 0.00 0.00 90 1011.0
20260510071503 60 0 0.0 0.0 0.00 0.00 0.00 90 1011.0
20260510071004 60 0 0.0 0.0 0.00 0.00 0.00 90 1011.0
20260510070504 60 0 0.0 0.0 0.00 0.00 0.00 90 1011.0
20260510070004 60 0 0.0 0.0 0.00 0.00 0.00 91 1011.0
20260510065503 60 0 0.0 0.0 0.00 0.00 0.00 91 1011.0
20260510065003 61 0 0.0 0.0 0.00 0.00 0.00 91 1011.0
20260510064503 61 0 0.0 0.0 0.00 0.00 0.00 91 1011.0
20260510064003 61 0 0.0 0.0 0.00 0.00 0.00 91 1011.0
20260510063503 60 0 0.0 0.0 0.00 0.00 0.00 91 1011.0
20260510063003 60 0 0.0 0.0 0.00 0.00 0.00 91 1011.1
20260510062503 60 0 0.0 0.0 0.00 0.00 0.00 90 1011.0
20260510062216 60 0 0.0 0.0 0.00 0.00 0.00 90 1011.0
20260510061503 60 0 0.0 0.0 0.00 0.00 0.00 90 1011.0
20260510061003 60 0 0.0 0.0 0.00 0.00 0.00 90 1010.9
20260510060715 60 0 0.0 0.0 0.00 0.00 0.00 90 1010.9
20260510060213 60 0 0.0 0.0 0.00 0.00 0.00 90 1011.0
20260510055503 61 0 0.0 0.0 0.00 0.00 0.00 90 1011.0
20260510055003 61 0 0.0 0.0 0.00 0.00 0.00 90 1011.1
20260510054717 61 0 0.0 0.0 0.00 0.00 0.00 90 1011.1
20260510054003 61 0 0.0 0.0 0.00 0.00 0.00 90 1011.1
20260510053503 61 0 0.0 0.0 0.00 0.00 0.00 89 1011.1
20260510053004 61 0 0.0 0.0 0.00 0.00 0.00 90 1011.1
20260510052503 61 0 0.0 0.0 0.00 0.00 0.00 90 1011.1
20260510052003 61 0 0.0 0.0 0.00 0.00 0.00 90 1011.2
20260510051503 61 0 0.0 0.0 0.00 0.00 0.00 90 1011.2
20260510051003 61 0 0.0 0.0 0.00 0.00 0.00 90 1011.2
20260510050503 61 0 0.0 0.0 0.00 0.00 0.00 90 1011.3
20260510050004 61 0 0.0 0.0 0.00 0.00 0.00 90 1011.4
20260510045716 61 0 0.0 0.0 0.00 0.00 0.00 89 1011.5
20260510045004 61 0 0.0 0.0 0.00 0.00 0.00 89 1011.5
20260510044503 61 0 0.0 0.0 0.00 0.00 0.00 89 1011.4
20260510044003 61 0 0.0 0.0 0.00 0.00 0.00 89 1011.4
20260510043504 61 0 0.0 0.0 0.00 0.00 0.00 89 1011.3
20260510043003 61 0 0.0 0.0 0.00 0.00 0.00 89 1011.4
20260510042503 61 0 0.0 0.0 0.00 0.00 0.00 89 1011.4
20260510042217 61 0 0.0 0.0 0.00 0.00 0.00 89 1011.4
20260510041503 62 0 0.0 0.0 0.00 0.00 0.00 89 1011.5
20260510041003 62 0 0.0 0.0 0.00 0.00 0.00 88 1011.5
20260510040504 62 0 0.0 0.0 0.00 0.00 0.00 88 1011.4
20260510040015 62 0 0.0 0.0 0.00 0.00 0.00 88 1011.4
20260510035503 62 0 0.0 0.0 0.00 0.00 0.00 88 1011.4
20260510035004 62 0 0.0 0.0 0.00 0.00 0.00 88 1011.5
20260510034503 62 0 0.0 0.0 0.00 0.00 0.00 88 1011.5
20260510034003 62 0 0.0 0.0 0.00 0.00 0.00 88 1011.4
20260510033503 62 0 0.0 0.0 0.00 0.00 0.00 88 1011.5
20260510033003 62 0 0.0 0.0 0.00 0.00 0.00 88 1011.6
20260510032503 62 0 0.0 0.0 0.00 0.00 0.00 88 1011.5
20260510032003 62 0 0.0 0.0 0.00 0.00 0.00 87 1011.4
20260510031503 63 0 0.0 0.0 0.00 0.00 0.00 87 1011.5
20260510031003 63 0 0.0 0.0 0.00 0.00 0.00 87 1011.5
20260510030717 63 0 0.0 0.0 0.00 0.00 0.00 87 1011.4
20260510030004 63 0 0.0 0.0 0.00 0.00 0.00 87 1011.4
20260510025503 64 0 0.0 0.0 0.00 0.00 0.00 86 1011.4
20260510025004 64 0 0.0 0.0 0.00 0.00 0.00 86 1011.4
20260510024713 64 0 0.0 0.0 0.00 0.00 0.00 86 1011.4
20260510024003 64 0 0.0 0.0 0.00 0.00 0.00 86 1011.4
20260510023503 64 0 0.0 0.0 0.00 0.00 0.00 86 1011.3
20260510023003 64 0 0.0 0.0 0.00 0.00 0.00 86 1011.2
20260510022503 64 0 0.0 0.0 0.00 0.00 0.00 86 1011.2
20260510022003 65 0 0.0 0.0 0.00 0.00 0.00 85 1011.1
20260510021503 65 0 0.0 0.0 0.00 0.00 0.00 85 1011.2
20260510021003 65 0 0.0 0.0 0.00 0.00 0.00 85 1011.1
20260510020503 65 0 0.0 0.0 0.00 0.00 0.00 85 1011.1
20260510020004 65 0 0.0 0.0 0.00 0.00 0.00 85 1011.1
20260510015504 65 0 0.0 0.0 0.00 0.00 0.00 85 1011.1
20260510015216 65 0 0.0 0.0 0.00 0.00 0.00 85 1011.0
20260510014503 66 0 0.0 0.0 0.00 0.00 0.00 84 1010.9
20260510014217 66 0 0.0 0.0 0.00 0.00 0.00 84 1010.8
20260510013503 66 0 0.0 0.0 0.00 0.00 0.00 84 1010.8
20260510013213 66 0 0.0 0.0 0.00 0.00 0.00 84 1010.7
20260510012504 66 0 0.0 0.0 0.00 0.00 0.00 83 1010.6
20260510012003 66 0 0.0 0.0 0.00 0.00 0.00 83 1010.6
20260510011504 66 0 0.0 0.0 0.00 0.00 0.00 83 1010.5
20260510011004 66 0 0.0 0.0 0.00 0.00 0.00 82 1010.3
20260510010503 67 0 0.0 0.0 0.00 0.00 0.00 82 1010.3
20260510010003 67 0 0.0 0.0 0.00 0.00 0.00 82 1010.2
20260510005503 67 0 0.0 0.0 0.00 0.00 0.00 81 1010.2
20260510005003 67 0 0.0 0.0 0.00 0.00 0.00 81 1010.2
20260510004503 68 0 0.0 0.0 0.00 0.00 0.00 80 1010.1
20260510004003 68 0 0.0 0.0 0.00 0.00 0.00 80 1009.9
20260510003503 68 0 0.0 0.0 0.00 0.00 0.00 79 1009.8
20260510003214 68 0 0.0 0.0 0.00 0.00 0.00 79 1009.8
20260510002717 69 0 0.0 0.0 0.00 0.00 0.00 79 1009.6
20260510002215 69 0 0.0 0.0 0.00 0.00 0.00 78 1009.7
20260510001504 69 0 0.0 0.0 0.00 0.00 0.00 79 1009.4
20260510001003 69 0 0.0 0.0 0.00 0.00 0.00 78 1009.5
20260510000504 69 0 0.0 0.0 0.00 0.00 0.00 77 1009.5
20260510000004 70 0 0.0 0.0 0.00 0.00 0.00 77 1009.4
20260509235503 70 0 0.0 0.0 0.00 0.00 0.00 77 1009.4
20260509235003 70 0 0.0 0.0 0.00 0.00 0.00 76 1009.2
20260509234715 70 0 0.0 0.0 0.00 0.00 0.00 77 1009.2
20260509234003 70 0 0.0 1.0 0.00 0.00 0.00 77 1009.2
20260509233503 70 0 0.0 1.0 0.00 0.00 0.00 76 1009.2
20260509233004 70 0 0.0 0.0 0.00 0.00 0.00 76 1009.2
20260509232503 71 0 0.0 0.0 0.00 0.00 0.00 75 1009.2
20260509232003 71 0 0.0 0.0 0.00 0.00 0.00 75 1009.2
20260509231503 72 0 0.0 0.0 0.00 0.00 0.00 75 1009.2
20260509231003 72 0 0.0 0.0 0.00 0.00 0.00 74 1009.2
20260509230714 72 0 0.0 0.0 0.00 0.00 0.00 73 1009.2
20260509230004 72 0 0.0 0.0 0.00 0.00 0.00 72 1009.1
20260509225503 72 0 0.0 0.0 0.00 0.00 0.00 71 1009.1
20260509225004 73 0 0.0 0.0 0.00 0.00 0.00 72 1009.1
20260509224504 73 0 0.0 0.0 0.00 0.00 0.00 71 1008.9
20260509224003 73 0 0.0 0.0 0.00 0.00 0.00 71 1008.8
20260509223717 73 0 0.0 0.0 0.00 0.00 0.00 71 1008.8
20260509223003 73 0 0.0 1.0 0.00 0.00 0.00 70 1009.0
20260509222503 74 0 0.0 1.0 0.00 0.00 0.00 71 1008.8
20260509222216 74 0 0.0 1.0 0.00 0.00 0.00 69 1008.8
20260509221714 74 0 0.0 0.0 0.00 0.00 0.00 70 1008.8
20260509221217 74 0 0.0 0.0 0.00 0.00 0.00 70 1008.7
20260509220715 74 0 0.0 3.0 0.00 0.00 0.00 70 1008.7
20260509220213 74 0 0.0 3.0 0.00 0.00 0.00 70 1008.7
20260509215503 74 0 0.0 0.0 0.00 0.00 0.00 70 1008.5
20260509215003 74 0 0.0 1.0 0.00 0.00 0.00 68 1008.6
20260509214503 74 0 0.0 1.0 0.00 0.00 0.00 68 1008.6
20260509214003 74 0 0.0 0.0 0.00 0.00 0.00 69 1008.5
20260509213503 74 0 0.0 0.0 0.00 0.00 0.00 70 1008.6
20260509213003 74 0 0.0 0.0 0.00 0.00 0.00 71 1008.7
20260509212503 74 0 0.0 0.0 0.00 0.00 0.00 69 1008.6
20260509212003 73 0 0.0 1.0 0.00 0.00 0.00 68 1008.5
20260509211504 74 0 0.0 1.0 0.00 0.00 0.00 68 1008.5
20260509211003 74 0 0.0 0.0 0.00 0.00 0.00 70 1008.5
20260509210503 74 0 0.0 1.0 0.00 0.00 0.00 68 1008.5
20260509210003 74 0 0.0 1.0 0.00 0.00 0.00 67 1008.4
20260509205503 74 0 0.0 0.0 0.00 0.00 0.00 67 1008.5
20260509205003 74 0 0.0 0.0 0.00 0.00 0.00 67 1008.4
20260509204717 75 0 0.0 3.0 0.00 0.00 0.00 67 1008.5
20260509204003 75 0 0.0 3.0 0.00 0.00 0.00 68 1008.7
20260509203503 75 0 0.0 2.0 0.00 0.00 0.00 69 1008.4
20260509203003 75 0 0.0 0.0 0.00 0.00 0.00 68 1008.4
20260509202503 75 0 0.0 0.0 0.00 0.00 0.00 67 1008.5
20260509202003 75 0 0.0 0.0 0.00 0.00 0.00 67 1008.5